Winfield, KS

6:03 PM CDT on October 18, 2017 (GMT -0500)
Strother

Weather History for KWLD - January, 2012

Change the Weather History Date:

Thursday, January 19, 2012

  Actual Average Record
Temperature  
Mean Temperature 32 °F -  
Max Temperature 39 °F 43 °F 68 °F (2015)
Min Temperature 26 °F 23 °F 10 °F (2008)
Degree Days  
Heating Degree Days 32    
Moisture  
Dew Point 20 °F    
Average Humidity 61    
Maximum Humidity 81    
Minimum Humidity 45    
Precipitation  
Precipitation 0.00 in - - ()
Sea Level Pressure  
Sea Level Pressure 29.95 in    
Wind  
Wind Speed 8 mph (ENE)    
Max Wind Speed 17 mph    
Max Gust Speed -    
Visibility 10 miles    
Events      
Averages and records for this station are not official NWS values.
T = Trace of Precipitation, MM = Missing Value Source: NWS Daily Summary

Daily Weather History Graph

Daily Weather History Graph

Search for Another Location

Airport or City:

Trip Planner

Search our weather history database for the weather conditions in past years. The results will help you decide how hot, cold, wet, or windy it might be!

Date:

Astronomy

Jan. 19, 2012 Rise Set
Actual Time 7:39 AM CST 5:38 PM CST
Civil Twilight 7:11 AM CST 6:06 PM CST
Nautical Twilight 6:39 AM CST 6:38 PM CST
Astronomical Twilight 6:08 AM CST 7:09 PM CST
Moon 4:15 AM CST (1/19) 2:13 PM CST (1/19)
Length of Visible Light 10h 55m
Length of Day
9h 58m
Waning Crescent, 15% of the Moon is Illuminated
Jan 19
Waning Crescent
Jan 23
New
Jan 30
First Quarter
Feb 7
Full
Feb 14
Last Quarter

Hourly Weather History & Observations

Time (CST) Temp. Windchill Dew Point Humidity Pressure Visibility Wind Dir Wind Speed Gust Speed Precip Events Conditions
12:54 AM 32.0 °F 25.6 °F 21.0 °F 64% 29.89 in 10.0 mi SE 6.9 mph - N/A   Clear
1:54 AM 30.0 °F 25.2 °F 19.9 °F 66% 29.88 in 10.0 mi SE 4.6 mph - N/A   Clear
2:54 AM 30.9 °F 24.3 °F 21.0 °F 67% 29.86 in 10.0 mi SE 6.9 mph - N/A   Clear
3:54 AM 30.0 °F 24.1 °F 21.9 °F 72% 29.83 in 10.0 mi SE 5.8 mph - N/A   Clear
4:54 AM 30.0 °F 25.2 °F 23.0 °F 75% 29.81 in 10.0 mi SSE 4.6 mph - N/A   Clear
6:54 AM 26.1 °F 19.4 °F 21.0 °F 81% 29.90 in 10.0 mi NNE 5.8 mph - N/A   Clear
7:54 AM 28.0 °F 21.7 °F 23.0 °F 81% 29.90 in 10.0 mi NE 5.8 mph - N/A   Clear
8:54 AM 32.0 °F 27.5 °F 24.1 °F 73% 29.94 in 10.0 mi NE 4.6 mph - N/A   Clear
9:54 AM 37.9 °F 32.7 °F 26.1 °F 62% 29.95 in 10.0 mi NE 6.9 mph - N/A   Clear
10:54 AM 37.0 °F 27.4 °F 24.1 °F 59% 29.97 in 10.0 mi North 17.3 mph - N/A   Clear
12:54 PM 37.9 °F 29.2 °F 21.0 °F 51% 29.97 in 10.0 mi North 15.0 mph - N/A   Clear
1:54 PM 39.0 °F 30.3 °F 19.9 °F 46% 29.98 in 10.0 mi North 16.1 mph - N/A   Clear
3:54 PM 39.0 °F 31.8 °F 19.0 °F 45% 29.98 in 10.0 mi NE 11.5 mph - N/A   Clear
4:54 PM 37.9 °F 30.9 °F 18.0 °F 45% 29.98 in 10.0 mi NNE 10.4 mph - N/A   Clear
5:54 PM 34.0 °F 28.0 °F 18.0 °F 52% 30.03 in 10.0 mi NE 6.9 mph - N/A   Clear
6:54 PM 32.0 °F 24.8 °F 17.1 °F 54% 30.03 in 10.0 mi NE 8.1 mph - N/A   Clear
7:54 PM 30.0 °F 23.2 °F 15.1 °F 54% 30.03 in 10.0 mi ENE 6.9 mph - N/A   Clear
8:54 PM 28.9 °F 22.8 °F 15.1 °F 56% 30.02 in 10.0 mi NE 5.8 mph - N/A   Clear
9:54 PM 27.0 °F 18.7 °F 14.0 °F 58% 30.00 in 10.0 mi NE 8.1 mph - N/A   Clear
10:54 PM 26.1 °F 18.4 °F 14.0 °F 60% 29.99 in 10.0 mi ENE 6.9 mph - N/A   Clear
11:54 PM 26.1 °F 16.8 °F 14.0 °F 60% 29.97 in 10.0 mi East 9.2 mph - N/A   Clear